When you browse on this site, cookies collect data to enhance your experience and personalize the content and advertising you see.
Visit our Privacy Policy to learn more. By continuing to use the site, you agree to this use of cookies and data.
  • In Austria
  • List of Countries
  • For 7 days
  • Water Temperature
  • Weather Map
  • News
  • Weather Widgets
  • user-avatar
    Login

    Hourly Weather Narino

    Today, 21 November, Thursday

    Time Temperature Precipitation Wind Pressure Humidity
    00:00 +22°C° 0.1 mm 0 mps 738 mmHg 87%
    01:00 +22°C° 0.1 mm 0 mps 737 mmHg 87%
    02:00 +22°C° 0 mm 0 mps 737 mmHg 87%
    03:00 +22°C° 0 mm 0 mps 737 mmHg 87%
    04:00 +22°C° 0 mm 0 mps 737 mmHg 86%
    05:00 +22°C° 0 mm 0 mps 738 mmHg 86%
    06:00 +23°C° 0 mm 0 mps 738 mmHg 85%
    07:00 +23°C° 0 mm 0 mps 738 mmHg 84%
    08:00 +25°C° 0.1 mm 0 mps 738 mmHg 80%
    09:00 +26°C° 0.1 mm 0 mps 738 mmHg 76%
    10:00 +30°C° 0.1 mm 1 mps 738 mmHg 72%
    11:00 +31°C° 0.1 mm 1 mps 737 mmHg 69%
    12:00 +32°C° 0.1 mm 1 mps 737 mmHg 65%
    13:00 +33°C° 0.1 mm 1 mps 736 mmHg 62%
    14:00 +33°C° 0.1 mm 1 mps 735 mmHg 62%
    15:00 +33°C° 0.1 mm 1 mps 735 mmHg 61%
    16:00 +32°C° 0.1 mm 1 mps 735 mmHg 61%
    17:00 +31°C° 0.3 mm 1 mps 735 mmHg 67%
    18:00 +29°C° 0.3 mm 1 mps 736 mmHg 73%
    19:00 +27°C° 0.3 mm 1 mps 736 mmHg 80%
    20:00 +27°C° 0.2 mm 1 mps 737 mmHg 81%
    21:00 +26°C° 0.2 mm 1 mps 737 mmHg 82%
    22:00 +26°C° 0.2 mm 1 mps 738 mmHg 83%
    23:00 +25°C° 0.2 mm 1 mps 737 mmHg 84%

    Tomorrow, 22 November, Friday

    Time Temperature Precipitation Wind Pressure Humidity
    00:00 +25°C° 0.2 mm 1 mps 737 mmHg 85%
    01:00 +24°C° 0.2 mm 1 mps 737 mmHg 86%
    02:00 +24°C° 0.2 mm 1 mps 737 mmHg 87%
    03:00 +24°C° 0.2 mm 1 mps 737 mmHg 88%
    04:00 +24°C° 0.2 mm 1 mps 737 mmHg 89%
    05:00 +22°C° 0 mm 0 mps 737 mmHg 88%
    06:00 +23°C° 0 mm 0 mps 737 mmHg 86%
    07:00 +23°C° 0 mm 0 mps 738 mmHg 85%
    08:00 +27°C° 0 mm 1 mps 738 mmHg 80%
    09:00 +28°C° 0 mm 1 mps 738 mmHg 76%
    10:00 +30°C° 0 mm 1 mps 738 mmHg 71%
    11:00 +31°C° 0 mm 1 mps 737 mmHg 67%
    12:00 +32°C° 0 mm 1 mps 736 mmHg 63%
    13:00 +33°C° 0 mm 1 mps 736 mmHg 59%
    14:00 +33°C° 0.1 mm 1 mps 735 mmHg 59%
    15:00 +33°C° 0.1 mm 1 mps 735 mmHg 60%
    16:00 +33°C° 0.1 mm 1 mps 734 mmHg 61%
    17:00 +31°C° 0.3 mm 1 mps 735 mmHg 67%
    18:00 +29°C° 0.3 mm 1 mps 735 mmHg 73%
    19:00 +27°C° 0.3 mm 1 mps 736 mmHg 79%
    20:00 +27°C° 0.5 mm 1 mps 737 mmHg 81%
    21:00 +26°C° 0.5 mm 1 mps 737 mmHg 83%
    22:00 +25°C° 0.5 mm 1 mps 738 mmHg 85%
    23:00 +25°C° 0.7 mm 1 mps 738 mmHg 87%

    Day after tomorrow, 23 November, Saturday

    Time Temperature Precipitation Wind Pressure Humidity
    00:00 +25°C° 0.7 mm 1 mps 737 mmHg 89%
    01:00 +25°C° 0.7 mm 1 mps 737 mmHg 91%
    02:00 +25°C° 0.4 mm 1 mps 737 mmHg 92%
    03:00 +24°C° 0.4 mm 1 mps 737 mmHg 93%
    04:00 +24°C° 0.4 mm 1 mps 736 mmHg 94%
    05:00 +25°C° 0.1 mm 1 mps 737 mmHg 93%
    06:00 +23°C° 0.1 mm 0 mps 737 mmHg 93%
    07:00 +23°C° 0.1 mm 0 mps 738 mmHg 92%
    08:00 +24°C° 0 mm 0 mps 738 mmHg 86%
    09:00 +26°C° 0 mm 0 mps 738 mmHg 81%
    10:00 +29°C° 0 mm 1 mps 738 mmHg 76%
    11:00 +30°C° 0.1 mm 1 mps 737 mmHg 71%
    12:00 +31°C° 0.1 mm 1 mps 736 mmHg 67%
    13:00 +32°C° 0.1 mm 1 mps 735 mmHg 63%
    14:00 +32°C° 0.4 mm 1 mps 735 mmHg 63%
    15:00 +32°C° 0.4 mm 1 mps 735 mmHg 63%
    16:00 +32°C° 0.4 mm 1 mps 734 mmHg 64%
    17:00 +30°C° 0.2 mm 1 mps 735 mmHg 69%
    18:00 +29°C° 0.2 mm 1 mps 736 mmHg 74%
    19:00 +27°C° 0.2 mm 1 mps 736 mmHg 79%
    20:00 +26°C° 0.1 mm 1 mps 737 mmHg 81%
    21:00 +26°C° 0.1 mm 1 mps 737 mmHg 82%
    22:00 +26°C° 0.1 mm 1 mps 738 mmHg 83%
    23:00 +25°C° 0.4 mm 1 mps 737 mmHg 85%

    24 November, Sunday

    Time Temperature Precipitation Wind Pressure Humidity
    00:00 +25°C° 0.4 mm 1 mps 737 mmHg 87%
    01:00 +25°C° 0.4 mm 1 mps 737 mmHg 89%
    02:00 +22°C° 0.1 mm 0 mps 737 mmHg 90%
    03:00 +22°C° 0.1 mm 0 mps 736 mmHg 91%
    04:00 +22°C° 0.1 mm 0 mps 736 mmHg 91%
    05:00 +22°C° 0 mm 0 mps 737 mmHg 90%
    06:00 +23°C° 0 mm 0 mps 737 mmHg 89%
    07:00 +23°C° 0 mm 0 mps 738 mmHg 88%
    08:00 +25°C° 0.3 mm 0 mps 738 mmHg 83%
    09:00 +26°C° 0.3 mm 0 mps 737 mmHg 77%
    10:00 +30°C° 0.3 mm 1 mps 737 mmHg 72%
    11:00 +31°C° 0.1 mm 1 mps 736 mmHg 68%
    12:00 +32°C° 0.1 mm 1 mps 736 mmHg 63%
    13:00 +33°C° 0.1 mm 1 mps 735 mmHg 59%
    14:00 +33°C° 0 mm 1 mps 734 mmHg 60%
    15:00 +33°C° 0 mm 1 mps 734 mmHg 60%
    16:00 +30°C° 0 mm 0 mps 733 mmHg 60%
    17:00 +31°C° 0.2 mm 1 mps 734 mmHg 66%
    18:00 +29°C° 0.2 mm 1 mps 735 mmHg 73%
    19:00 +27°C° 0.2 mm 1 mps 735 mmHg 79%
    20:00 +27°C° 0.6 mm 1 mps 736 mmHg 81%
    21:00 +26°C° 0.6 mm 1 mps 737 mmHg 84%
    22:00 +26°C° 0.6 mm 1 mps 737 mmHg 86%
    23:00 +26°C° 0.4 mm 1 mps 737 mmHg 87%

    25 November, Monday

    Time Temperature Precipitation Wind Pressure Humidity
    00:00 +23°C° 0.4 mm 0 mps 736 mmHg 87%
    01:00 +23°C° 0.4 mm 0 mps 736 mmHg 88%
    02:00 +23°C° 0.5 mm 0 mps 736 mmHg 89%
    03:00 +23°C° 0.5 mm 0 mps 736 mmHg 90%
    04:00 +23°C° 0.5 mm 0 mps 735 mmHg 90%
    05:00 +23°C° 0.4 mm 0 mps 736 mmHg 90%
    06:00 +23°C° 0.4 mm 0 mps 736 mmHg 90%
    07:00 +24°C° 0.4 mm 0 mps 737 mmHg 89%
    08:00 +25°C° 0.1 mm 0 mps 737 mmHg 84%
    09:00 +28°C° 0.1 mm 1 mps 736 mmHg 79%
    10:00 +30°C° 0.1 mm 1 mps 736 mmHg 74%
    11:00 +31°C° 0.1 mm 1 mps 735 mmHg 70%
    12:00 +32°C° 0.1 mm 1 mps 734 mmHg 65%
    13:00 +33°C° 0.1 mm 1 mps 733 mmHg 61%
    14:00 +33°C° 0 mm 1 mps 733 mmHg 61%
    15:00 +33°C° 0 mm 1 mps 733 mmHg 62%
    16:00 +32°C° 0 mm 1 mps 732 mmHg 62%
    17:00 +31°C° 0.1 mm 1 mps 733 mmHg 68%
    18:00 +29°C° 0.1 mm 1 mps 733 mmHg 73%
    19:00 +28°C° 0.1 mm 1 mps 734 mmHg 79%
    20:00 +27°C° 0.4 mm 1 mps 735 mmHg 81%
    21:00 +27°C° 0.4 mm 1 mps 735 mmHg 82%
    22:00 +27°C° 0.4 mm 1 mps 736 mmHg 84%
    23:00 +26°C° 1.2 mm 1 mps 736 mmHg 85%

    26 November, Tuesday

    Time Temperature Precipitation Wind Pressure Humidity
    00:00 +26°C° 1.2 mm 1 mps 735 mmHg 86%
    01:00 +24°C° 1.2 mm 0 mps 735 mmHg 88%
    02:00 +24°C° 0.6 mm 0 mps 735 mmHg 88%
    03:00 +23°C° 0.6 mm 0 mps 735 mmHg 89%
    04:00 +23°C° 0.6 mm 0 mps 735 mmHg 90%
    05:00 +23°C° 0.2 mm 0 mps 735 mmHg 89%
    06:00 +24°C° 0.2 mm 0 mps 736 mmHg 88%
    07:00 +24°C° 0.2 mm 0 mps 736 mmHg 88%
    08:00 +25°C° 0.3 mm 0 mps 736 mmHg 84%
    09:00 +28°C° 0.3 mm 1 mps 736 mmHg 81%
    10:00 +30°C° 0.3 mm 1 mps 736 mmHg 78%
    11:00 +31°C° 0.4 mm 1 mps 735 mmHg 74%
    12:00 +31°C° 0.4 mm 1 mps 735 mmHg 70%
    13:00 +32°C° 0.4 mm 1 mps 734 mmHg 66%
    14:00 +32°C° 0.1 mm 1 mps 733 mmHg 66%
    15:00 +32°C° 0.1 mm 1 mps 733 mmHg 66%
    16:00 +32°C° 0.1 mm 1 mps 732 mmHg 65%
    17:00 +31°C° 0.3 mm 1 mps 733 mmHg 70%
    18:00 +30°C° 0.3 mm 1 mps 734 mmHg 75%
    19:00 +28°C° 0.3 mm 1 mps 735 mmHg 80%
    20:00 +28°C° 0.7 mm 1 mps 735 mmHg 81%
    21:00 +27°C° 0.7 mm 1 mps 736 mmHg 83%
    22:00 +27°C° 0.7 mm 1 mps 736 mmHg 84%
    23:00 +27°C° 0.5 mm 1 mps 736 mmHg 85%
    Show more